Regional Weather Roundup
Issued by NWS

Home | Current Version | Previous Version | Graphics & Text | Print | Product List | Glossary On
Versions: 1 2 3 4 5 6 7 8 9 10 11 12 13 14 15 16 17 18 19 20 21 22 23 24 25 26 27
000
ASUS45 KBOI 271910
RWRID

IDAHO REGIONAL WEATHER ROUNDUP
NATIONAL WEATHER SERVICE BOISE ID
100 PM MDT THU APR 27 2017

NOTE: "FAIR" INDICATES FEW OR NO CLOUDS BELOW 12000 FEET
WITH NO SIGNIFICANT WEATHER AND/OR OBSTRUCTIONS TO VISIBILITY

IDZ012-014-272000-
SOUTHWEST IDAHO


CITY           SKY/WX    TMP DP  RH WIND       PRES   REMARKS
BOISE          PTSUNNY   47  26  44 W17G25    29.96S
CALDWELL       PTSUNNY   49  27  42 W17G26    29.98F
MOUNTAIN HOME  MOSUNNY   48  28  45 NW23G33   29.95S
$$

IDZ016-017-272000-
SOUTHCENTRAL IDAHO


CITY           SKY/WX    TMP DP  RH WIND       PRES   REMARKS
BURLEY         LGT RAIN  45  27  49 W31G43    29.82S
JEROME         MOSUNNY   46  29  51 SW29G39   29.87S
TWIN FALLS     MOSUNNY   45  30  55 W28G39    29.88F
$$

IDZ019>023-272000-
SOUTHEAST IDAHO


CITY           SKY/WX    TMP DP  RH WIND       PRES   REMARKS
IDAHO FALLS    LGT RAIN  40  33  76 S13G21    29.74F WCI  32
POCATELLO      LGT RAIN  43  32  65 W24G33    29.78F
REXBURG        CLOUDY    44  28  53 VRB6      29.72S
$$

IDZ006-010-011-018-031-032-272000-
CENTRAL IDAHO MOUNTAINS


CITY           SKY/WX    TMP DP  RH WIND       PRES   REMARKS
MCCALL         PTSUNNY   39  22  50 N10       29.86S WCI  32
HAILEY         MOSUNNY   45  16  31 NW7       29.76F
STANLEY          N/A     37  16  42 VRB5      29.80F WCI  33
SALMON         CLOUDY    45  21  39 NE5       29.78F
CHALLIS        CLOUDY    43  15  32 N6        29.77F
$$

IDZ002-004-006-007-026-272000-
NORTHERN IDAHO


CITY           SKY/WX    TMP DP  RH WIND       PRES   REMARKS
LEWISTON       CLOUDY    51  31  46 MISG      29.94F
LOWELL           N/A     43  37  79 CALM      29.99S
COEUR D`ALENE  CLOUDY    45  33  63 S7        29.88F
MULLAN PASS    SNOW      27  27 100 CALM      29.79R VSB 1/4
$$




USA.gov is the U.S. government's official web portal to all federal, state and local government web resources and services.